Location: Écuvilly
(49.6505°N, 2.9206°E)
Time: 07:01:42
(UTC+00:00)

Cosmos 2100 Rocket - Pass Details

Date: 17 November 2025
Orbit: 954 x 1000 km, 82.9° (Epoch: 12 December)

Event Time Altitude Azimuth Distance (km) Brightness Sun altitude
Rises 16:34:58 0° 197° (SSW) 3,644 7.7 -5.5°
Reaches altitude 10° 16:37:30 10° 200° (SSW) 2,696 7.0 -5.9°
Maximum altitude 16:43:37 65° 282° (WNW) 1,051 4.5 -6.8°
Drops below altitude 10° 16:49:45 10° 5° (N) 2,697 6.1 -7.7°
Sets 16:52:17 0° 8° (N) 3,646 6.7 -8.1°
